📊 Raw Sensor Data
Showing records 46076 to 46100 of 85,064 total
| ID | Distance (ft) | Battery V | Battery A | Int Temp (°F) | Int Humid (%) | Ext Temp (°F) | Solar V | RSSI | SNR | Time Stamp |
|---|---|---|---|---|---|---|---|---|---|---|
| 39001 | 15.3 | 4.01 | 0 | 63 | 39 | 61 | 5.10 | -76 | 8 | 04/27/2025 11:30 AM |
| 39000 | 15.2 | 4.02 | 0 | 60 | 40 | 59 | 5.10 | -74 | 8 | 04/27/2025 11:15 AM |
| 38999 | 15.2 | 4.01 | 0 | 59 | 40 | 58 | 5.10 | -76 | 7 | 04/27/2025 11:00 AM |
| 38998 | 15.2 | 4.02 | 0 | 57 | 40 | 56 | 5.10 | -74 | 8 | 04/27/2025 10:45 AM |
| 38997 | 15.2 | 4.01 | 0 | 56 | 41 | 55 | 5.10 | -76 | 8 | 04/27/2025 10:30 AM |
| 38996 | 15.1 | 4.01 | 0 | 55 | 41 | 54 | 5.10 | -78 | 7 | 04/27/2025 10:15 AM |
| 38995 | 15.2 | 4.01 | 0 | 54 | 41 | 54 | 5.10 | -78 | 7 | 04/27/2025 10:00 AM |
| 38994 | 15.1 | 4.05 | 0 | 54 | 41 | 54 | 5.10 | -76 | 8 | 04/27/2025 09:45 AM |
| 38993 | 15.1 | 4.01 | 0 | 54 | 40 | 53 | 5.10 | -78 | 7 | 04/27/2025 09:30 AM |
| 38992 | 15.1 | 4.01 | 0 | 54 | 40 | 53 | 5.10 | -78 | 8 | 04/27/2025 09:15 AM |
| 38991 | 15.2 | 4.02 | 0 | 54 | 40 | 54 | 5.10 | -82 | 7 | 04/27/2025 09:00 AM |
| 38990 | 15.1 | 4.06 | 14 | 52 | 40 | 52 | 4.50 | -87 | 6 | 04/27/2025 08:45 AM |
| 38989 | 15.1 | 4.08 | 23 | 52 | 40 | 53 | 4.50 | -84 | 6 | 04/27/2025 08:30 AM |
| 38988 | 15.1 | 4.07 | 36 | 51 | 41 | 51 | 4.50 | -84 | 7 | 04/27/2025 08:15 AM |
| 38987 | 15.1 | 4.01 | 0 | 50 | 41 | 50 | 4.50 | -84 | 7 | 04/27/2025 08:00 AM |
| 38986 | 15.1 | 4.01 | 0 | 50 | 40 | 50 | 4.50 | -85 | 7 | 04/27/2025 07:45 AM |
| 38985 | 15.1 | 3.98 | 11 | 50 | 41 | 50 | 4.50 | -85 | 7 | 04/27/2025 07:30 AM |
| 38984 | 15.1 | 3.95 | 0 | 49 | 41 | 50 | 4.50 | -86 | 8 | 04/27/2025 07:15 AM |
| 38983 | 15.1 | 4.00 | 0 | 49 | 41 | 49 | 4.50 | -85 | 7 | 04/27/2025 07:00 AM |
| 38982 | 15.1 | 3.93 | -9 | 49 | 41 | 49 | 4.50 | -86 | 8 | 04/27/2025 06:45 AM |
| 38981 | 15.1 | 3.99 | -9 | 48 | 41 | 49 | 3.20 | -82 | 8 | 04/27/2025 06:30 AM |
| 38980 | 15.1 | 3.94 | -5 | 48 | 41 | 49 | 0.80 | -85 | 7 | 04/27/2025 06:15 AM |
| 38979 | 15.1 | 4.00 | -5 | 48 | 41 | 49 | 1.30 | -86 | 8 | 04/27/2025 06:00 AM |
| 38978 | 15.1 | 3.94 | -5 | 48 | 41 | 49 | 0.00 | -86 | 8 | 04/27/2025 05:45 AM |
| 38977 | 15.1 | 4.00 | -5 | 48 | 41 | 48 | 0.00 | -77 | 8 | 04/27/2025 05:30 AM |